Regional Weather Roundup
Issued by NWS Portland, ME

Current Version | Previous Version | Text Only | Print | Product List | Glossary Off
Versions: 1 2 3 4 5 6 7 8 9 10 11 12 13 14 15 16 17 18 19 20 21 22 23 24 25 26 27 28 29 30 31 32 33 34 35 36 37 38 39 40 41 42 43 44 45 46 47 48 49 50
000 ASUS41 KGYX 240910 RWRGYX WEATHER ROUNDUP FOR MAINE AND NEW HAMPSHIRE NATIONAL WEATHER SERVICE GRAY ME 500 AM EDT SUN JUN 24 2018 MEZ002-005-006-010-012-015-018-020-021-024-026-027-029-241000- MAINE CITY SKY/WX TMP DP RH WIND PRES REMARKS PORTLAND MOCLDY 55 54 96 CALM 29.79S SANFORD CLOUDY 53 52 96 CALM 29.80S BAR HARBOR CLOUDY 54 53 97 NW3 29.77S WISCASSET CLOUDY 54 54 100 CALM 29.79S ROCKLAND CLOUDY 55 54 96 W3 29.77F FRYEBURG CLOUDY 52 52 100 CALM 29.78S LEWISTONAUBURN CLOUDY 52 51 97 CALM 29.78F AUGUSTA CLOUDY 54 53 97 CALM 29.78S WATERVILLE MOCLDY 53 52 96 CALM 29.75S BANGOR CLOUDY 53 52 96 CALM 29.77S GREENVILLE N/A 53 52 96 CALM 29.75R MILLINOCKET CLOUDY 53 50 89 CALM 29.76F HOULTON LGT RAIN 51 50 96 S3 29.73F PRESQUE ISLE CLOUDY 55 50 83 S5 29.73F FRENCHVILLE CLOUDY 58 49 72 S8 29.70S CARIBOU CLOUDY 56 49 77 S5 29.71F $$ NHZ002-005-008-009-011-012-014-241000- NEW HAMPSHIRE CITY SKY/WX TMP DP RH WIND PRES REMARKS PORTSMOUTH CLOUDY 55 52 92 S3 29.78F ROCHESTER CLOUDY 54 54 100 CALM 29.78S NASHUA CLOUDY 56 55 97 CALM 29.80F MANCHESTER CLOUDY 57 53 86 S5 29.78F CONCORD CLOUDY 54 52 93 CALM 29.79F LACONIA CLOUDY 54 52 93 SW3 29.79F PLYMOUTH CLOUDY 54 53 95 CALM 29.78F BERLIN CLOUDY 54 53 97 CALM 29.79S WHITEFIELD CLOUDY 55 54 96 CALM 29.79S JAFFREY CLOUDY 55 55 100 S5 29.81S FOG KEENE CLOUDY 56 54 93 CALM 29.81S LEBANON CLOUDY 56 52 86 CALM 29.79S MT WASHINGTON DRZL/FOG 48 48 100 W35 N/A VSB 0 $$ VTZ005-007-008-241000- VERMONT CITY SKY/WX TMP DP RH WIND PRES REMARKS ST JOHNSBURY N/A 55 53 93 MISG 29.78S MONTPELIER CLOUDY 54 54 100 NE3 29.81F BURLINGTON CLOUDY 60 57 89 S6 29.77S $$ MAZ007-012-024-CTZ003-RIZ002-NYZ038-NYZ072-241000- SOUTHERN NEW ENGLAND AND NY CITY SKY/WX TMP DP RH WIND PRES REMARKS BOSTON CLOUDY 60 56 86 CALM 29.80F WORCESTER FOG 56 55 97 SW8 29.81S VSB 3/4 NANTUCKET CLOUDY 60 60 100 N6 29.81R FOG PROVIDENCE CLOUDY 60 57 89 CALM 29.81S HARTFORD CLOUDY 59 57 93 CALM 29.81S ALBANY CLOUDY 62 59 90 S7 29.79S NEW YORK CITY CLOUDY 67 62 84 S6 29.81S $$ ANZ081-ANZ082-ANZ150-NHZ014-MEZ023>029-241000- COASTAL MARINE OBSERVATIONS STATION/POSITION TIME TEMP WIND PRES WAVE AIR SEA DIR/SP/G HT/PER (UTC) (F) (DEG/KT/KT) (MB) (FT/S) MOUNT DESERT ROC 0900 53 290/ 7/ 7 1008.3R MATINICUS ROCK 0900 52 300/ 6/ 6 1007.9S ISLE OF SHOALS 0900 56 260/ 5/ 5 1008.7S JEFFREYS LEDGE 0836 61 N/A 3/ 8 $$ .............KEY.............. WCI - WIND CHILL TC - TEMPERATURE IN CELSIUS VSB - VISIBILITY IN MILES HX - HEAT INDEX FAIR- INDICATES FEW OR NO CLOUDS BELOW 12,000 FT, WITH NO SIGNIFICANT WEATHER AND/OR OBSTRUCTIONS TO VISIBILITY.

USA.gov is the U.S. government's official web portal to all federal, state and local government web resources and services.